NOAA 16 DEB, 41358

Orbit data source: Space-Track

NOAA 16 DEB, 41358 is space debris in SSO originally from a launch on Thu, 21 Sep 2000 UTC launched from the Air Force Western Test Range (AFWTR). Debris objects in space refer to the collection of defunct objects orbiting the Earth. Examples of debris include non-operational satellites, rocket bodies, and fragments generated from explosions, collisions, or faulty payload assembly.

Loading next visibility...
Identifier
41358, 2000-055JB
Orbit
SSO
Country
Flag of USUS
Related business
Manufacturer
Unknown
Mission
Spacecraft
Bus & Motor
Unknown
Mass
Unknown
Launch date (UTC)
2000-09-21 (26 years ago)
Launch vehicle
Unknown
Launch site
Air Force Western Test Range (AFWTR)
Object type
Payload
Rocket body
Debris
Shape & HBR
Unknown shape, 0.1 m
Radar Cross Section
Medium (>0.1 m² and <1 m²)

Expand to show TLE details & history
Last TLE update: 1 day ago

TLE from 1 day ago
0 NOAA 16 DEB
1 41358U 00055JB  26228.10758921  .00001467  00000-0  60513-3 0  9990
2 41358  98.6186 286.0123 0017594 151.9019 208.3115 14.28241655544747
Epoch: 2026-08-16T02:34Z
TLE epoch observation values (Epoch: 2026-08-16T02:34:55.707Z)
Latitude
-0.00009°
Longitude
-77.22866°
Altitude
811.665 km
Speed
7.442 km/s
True Right ascension
19h 04m 02s
True Declination
0° 00' 00"
Sunlit
Object was in full shadow at epoch
Visualization orbit readout
Latitude
Unknown
Longitude
Unknown
Altitude
Unknown
Speed
Unknown
Apparent Right ascension
Unknown
Apparent Declination
Unknown
Sunlit
N/A
Visualization observer readout
Local Sidereal Time
16:55:05
Azimuth
Unknown
Elevation
Unknown
Doppler factor
Unknown
Orbital elements
Apogee altitude
807.377 km
Perigee altitude
782.138 km
Semi-major axis
7,172.895 km
Eccentricity
0.00176
Inclination
98.6186°
RAAN
286.0123°
Arg. of periapsis
151.9019°
True anomaly
208.21607°
Mean anomaly
208.3115°
Eccentric anomaly
208.26377°
Mean motion
3.57274 °/min
Orbital period
100.76 mins
BSTAR
0.00060513
Loading maneuver chart data...
Computing Atmospheric mass density...
Loading historical data...
Loading historical data...
Loading historical data...
Loading historical data...
Loading historical data...
Loading historical data...
Loading historical data...

Documentation

Showing up to 5 results
|